QPF
0.02 0.02 0.02 0.02 0.03 0.03 0.02 0.03 0.05 0.05 0.03 0.04 0.03 0.02 0.02 0.03 0.04 0.02 0.01 0.02 0.04 0.03 0.02 0.02 0.02 0.02 0.02 0.01 0.02 0.05 0.05 0.04 0.05 0.04 0.03 0.03 0.02 0.02 0.05 0.05 0.05 0.05 0.06
0.02 0.02 0.02 0.03 0.02 0.02 0.01 0.02 0.03 0.03 0.02 0.02 0.02 0.02 0.02 0.02 0.02 0.02 0.02 0.02 0.03 0.02 0.02 0.03 0.02 0.03 0.02 0.01 0.01 0.04 0.05 0.05 0.05 0.04 0.04 0.03 0.02 0.03 0.03 0.05 0.05 0.05 0.05
0.01 0.02 0.02 0.03 0.02 0.02 0.02 0.03 0.03 0.03 0.02 0.03 0.02 0.02 0.02 0.02 0.02 0.02 0.03 0.02 0.02 0.02 0.02 0.03 0.04 0.04 0.03 0.02 0.03 0.05 0.05 0.05 0.05 0.05 0.05 0.03 0.03 0.03 0.03 0.03 0.03 0.02 0.02
0.01 0.02 0.03 0.03 0.02 0.02 0.03 0.05 0.04 0.03 0.02 0.03 0.03 0.03 0.03 0.02 0.02 0.02 0.02 0.02 0.03 0.02 0.02 0.02 0.04 0.05 0.05 0.06 0.06 0.04 0.04 0.03 0.03 0.03 0.03 0.04 0.03 0.03 0.03 0.03 0.02 0.01 0.01
0.03 0.04 0.04 0.03 0.02 0.03 0.04 0.04 0.04 0.03 0.03 0.04 0.04 0.03 0.02 0.02 0.01 0.01 0.02 0.02 0.02 0.02 0.02 0.03 0.05 0.06 0.06 0.07 0.06 0.05 0.06 0.04 0.03 0.03 0.03 0.03 0.03 0.03 0.03 0.03 0.03 0.02 0.01
0.02 0.02 0.03 0.02 0.04 0.04 0.03 0.03 0.03 0.03 0.04 0.05 0.04 0.03 0.01 0.01 0.00 0.01 0.02 0.02 0.02 0.02 0.03 0.03 0.05 0.07 0.07 0.04 0.03 0.04 0.06 0.05 0.04 0.03 0.04 0.03 0.03 0.05 0.06 0.04 0.02 0.02 0.02
0.01 0.01 0.02 0.06 0.10 0.12 0.09 0.05 0.04 0.04 0.05 0.07 0.06 0.03 0.02 0.02 0.01 0.02 0.02 0.02 0.02 0.03 0.03 0.04 0.06 0.06 0.06 0.06 0.05 0.04 0.04 0.06 0.06 0.05 0.04 0.04 0.03 0.04 0.05 0.05 0.03 0.02 0.02
0.01 0.02 0.03 0.03 0.04 0.08 0.09 0.08 0.10 0.09 0.07 0.07 0.06 0.04 0.03 0.03 0.01 0.01 0.01 0.01 0.01 0.02 0.02 0.03 0.04 0.05 0.05 0.05 0.05 0.04 0.03 0.04 0.05 0.05 0.04 0.04 0.03 0.04 0.05 0.06 0.05 0.03 0.01
0.01 0.02 0.01 0.02 0.02 0.03 0.04 0.06 0.08 0.08 0.08 0.07 0.05 0.04 0.04 0.03 0.02 0.01 0.01 0.01 0.02 0.02 0.02 0.03 0.05 0.05 0.04 0.03 0.04 0.04 0.04 0.04 0.05 0.05 0.05 0.04 0.04 0.04 0.05 0.07 0.07 0.05 0.03
0.02 0.02 0.02 0.02 0.02 0.02 0.03 0.03 0.04 0.07 0.10 0.10 0.07 0.04 0.03 0.03 0.03 0.02 0.01 0.01 0.01 0.02 0.03 0.04 0.04 0.04 0.03 0.04 0.04 0.04 0.05 0.07 0.06 0.07 0.06 0.05 0.05 0.04 0.05 0.07 0.06 0.06 0.05
0.02 0.04 0.06 0.03 0.02 0.02 0.03 0.03 0.03 0.04 0.07 0.10 0.09 0.06 0.03 0.03 0.02 0.02 0.02 0.02 0.02 0.02 0.02 0.03 0.02 0.02 0.04 0.05 0.04 0.03 0.04 0.05 0.06 0.07 0.07 0.06 0.05 0.05 0.06 0.05 0.04 0.04 0.04
0.02 0.07 0.10 0.07 0.04 0.04 0.03 0.04 0.05 0.04 0.04 0.05 0.05 0.05 0.03 0.02 0.02 0.02 0.02 0.02 0.02 0.02 0.03 0.03 0.03 0.03 0.04 0.06 0.05 0.05 0.04 0.05 0.05 0.06 0.06 0.05 0.05 0.06 0.06 0.05 0.03 0.03 0.03
0.02 0.03 0.03 0.03 0.03 0.03 0.03 0.03 0.04 0.03 0.02 0.02 0.03 0.04 0.03 0.02 0.01 0.02 0.02 0.02 0.02 0.03 0.04 0.04 0.04 0.04 0.05 0.05 0.04 0.05 0.05 0.05 0.06 0.06 0.06 0.05 0.06 0.05 0.04 0.03 0.03 0.02 0.02
0.01 0.01 0.01 0.01 0.01 0.02 0.02 0.03 0.04 0.03 0.02 0.01 0.02 0.02 0.03 0.03 0.02 0.02 0.02 0.02 0.03 0.04 0.04 0.05 0.04 0.03 0.03 0.03 0.04 0.05 0.05 0.06 0.07 0.07 0.07 0.06 0.05 0.05 0.06 0.05 0.04 0.04 0.03
0.01 0.01 0.01 0.01 0.01 0.02 0.02 0.02 0.04 0.04 0.03 0.02 0.01 0.02 0.02 0.02 0.02 0.02 0.03 0.02 0.03 0.03 0.03 0.03 0.03 0.03 0.03 0.03 0.04 0.04 0.04 0.06 0.08 0.09 0.09 0.09 0.08 0.08 0.08 0.08 0.06 0.06 0.04
0.01 0.01 0.01 0.01 0.01 0.02 0.02 0.02 0.05 0.07 0.07 0.05 0.04 0.04 0.02 0.02 0.02 0.02 0.03 0.04 0.02 0.02 0.02 0.02 0.02 0.03 0.03 0.04 0.06 0.04 0.04 0.06 0.08 0.09 0.10 0.09 0.06 0.05 0.05 0.05 0.06 0.06 0.06
0.02 0.02 0.01 0.01 0.02 0.02 0.03 0.03 0.05 0.12 0.12 0.10 0.08 0.07 0.04 0.03 0.03 0.04 0.05 0.04 0.03 0.02 0.02 0.02 0.02 0.03 0.02 0.03 0.05 0.06 0.05 0.05 0.04 0.03 0.03 0.03 0.02 0.03 0.02 0.03 0.04 0.05 0.06
0.02 0.02 0.02 0.03 0.03 0.04 0.07 0.08 0.10 0.13 0.14 0.11 0.09 0.07 0.06 0.05 0.05 0.05 0.05 0.04 0.03 0.02 0.02 0.02 0.02 0.02 0.02 0.04 0.05 0.06 0.05 0.04 0.02 0.02 0.03 0.03 0.02 0.02 0.02 0.02 0.03 0.03 0.04
0.04 0.03 0.03 0.04 0.05 0.05 0.07 0.09 0.10 0.11 0.13 0.13 0.10 0.08 0.07 0.06 0.06 0.06 0.05 0.04 0.03 0.02 0.02 0.01 0.02 0.02 0.03 0.03 0.03 0.04 0.04 0.03 0.03 0.03 0.04 0.03 0.03 0.03 0.04 0.03 0.03 0.02 0.02
0.04 0.03 0.04 0.04 0.04 0.05 0.06 0.08 0.09 0.12 0.15 0.16 0.14 0.08 0.06 0.06 0.07 0.06 0.05 0.04 0.04 0.03 0.03 0.02 0.03 0.02 0.02 0.02 0.02 0.04 0.03 0.04 0.05 0.05 0.04 0.04 0.03 0.03 0.04 0.03 0.03 0.02 0.02
0.05 0.06 0.06 0.05 0.04 0.04 0.04 0.06 0.08 0.12 0.16 0.15 0.14 0.10 0.08 0.07 0.09 0.07 0.05 0.04 0.04 0.04 0.04 0.03 0.03 0.03 0.03 0.03 0.04 0.05 0.05 0.05 0.05 0.05 0.04 0.03 0.04 0.03 0.04 0.04 0.03 0.02 0.02
0.07 0.08 0.07 0.05 0.05 0.05 0.05 0.05 0.07 0.09 0.13 0.14 0.12 0.10 0.09 0.07 0.06 0.06 0.05 0.05 0.04 0.04 0.05 0.06 0.06 0.05 0.04 0.04 0.04 0.05 0.06 0.07 0.06 0.06 0.06 0.07 0.07 0.06 0.05 0.04 0.03 0.03 0.03
0.02 0.03 0.05 0.04 0.03 0.03 0.03 0.05 0.07 0.10 0.10 0.10 0.09 0.09 0.08 0.06 0.05 0.05 0.06 0.07 0.05 0.04 0.04 0.06 0.08 0.06 0.04 0.03 0.04 0.04 0.06 0.08 0.07 0.08 0.10 0.11 0.09 0.07 0.05 0.04 0.04 0.04 0.03
0.01 0.01 0.02 0.02 0.03 0.03 0.03 0.04 0.05 0.07 0.09 0.08 0.06 0.06 0.06 0.05 0.04 0.03 0.03 0.04 0.04 0.04 0.05 0.05 0.06 0.06 0.05 0.04 0.04 0.04 0.04 0.06 0.08 0.10 0.10 0.09 0.09 0.06 0.05 0.04 0.04 0.04 0.03
0.01 0.01 0.02 0.02 0.03 0.03 0.03 0.03 0.05 0.07 0.08 0.07 0.04 0.04 0.04 0.04 0.04 0.04 0.03 0.04 0.05 0.06 0.05 0.05 0.05 0.05 0.04 0.03 0.03 0.02 0.03 0.05 0.06 0.07 0.08 0.08 0.10 0.08 0.06 0.07 0.07 0.05 0.04
0.00 0.02 0.03 0.03 0.03 0.03 0.03 0.03 0.04 0.05 0.05 0.04 0.03 0.02 0.02 0.04 0.06 0.05 0.04 0.04 0.05 0.06 0.05 0.04 0.03 0.02 0.02 0.02 0.01 0.01 0.02 0.03 0.05 0.05 0.05 0.06 0.06 0.07 0.05 0.05 0.06 0.05 0.04
MSLP
1018.38 1017.95 1017.52 1017.10 1016.70 1016.33 1016.00 1015.76 1015.60 1015.54 1015.57 1015.67 1015.80 1015.94 1016.06 1016.15 1016.21 1016.24 1016.27 1016.32 1016.40 1016.52 1016.68 1016.88 1017.09 1017.28 1017.45 1017.57 1017.64 1017.66 1017.64 1017.59 1017.50 1017.40 1017.29 1017.15 1017.01 1016.86 1016.72 1016.59 1016.49 1016.44 1016.44
1018.86 1018.47 1018.05 1017.61 1017.15 1016.70 1016.28 1015.93 1015.68 1015.55 1015.53 1015.60 1015.71 1015.83 1015.94 1015.99 1016.01 1015.98 1015.96 1015.95 1016.00 1016.10 1016.27 1016.50 1016.74 1016.98 1017.19 1017.35 1017.45 1017.49 1017.48 1017.45 1017.39 1017.33 1017.25 1017.17 1017.07 1016.95 1016.81 1016.66 1016.51 1016.39 1016.31
1019.25 1018.92 1018.54 1018.10 1017.61 1017.10 1016.60 1016.16 1015.83 1015.63 1015.56 1015.58 1015.67 1015.77 1015.85 1015.87 1015.83 1015.75 1015.65 1015.59 1015.58 1015.65 1015.81 1016.03 1016.29 1016.56 1016.80 1016.98 1017.11 1017.19 1017.22 1017.22 1017.22 1017.22 1017.21 1017.19 1017.15 1017.07 1016.95 1016.78 1016.58 1016.38 1016.20
1019.55 1019.29 1018.97 1018.56 1018.07 1017.52 1016.97 1016.46 1016.06 1015.79 1015.66 1015.65 1015.70 1015.77 1015.82 1015.80 1015.71 1015.56 1015.41 1015.27 1015.21 1015.23 1015.34 1015.55 1015.80 1016.06 1016.31 1016.52 1016.67 1016.78 1016.85 1016.91 1016.97 1017.04 1017.11 1017.17 1017.20 1017.17 1017.06 1016.89 1016.65 1016.38 1016.10
1019.76 1019.58 1019.34 1018.98 1018.51 1017.96 1017.36 1016.80 1016.34 1016.02 1015.84 1015.78 1015.80 1015.83 1015.84 1015.78 1015.65 1015.45 1015.23 1015.04 1014.90 1014.86 1014.92 1015.08 1015.30 1015.54 1015.78 1015.98 1016.14 1016.27 1016.37 1016.48 1016.60 1016.74 1016.89 1017.03 1017.12 1017.14 1017.07 1016.90 1016.64 1016.31 1015.95
1019.90 1019.82 1019.66 1019.36 1018.93 1018.38 1017.77 1017.18 1016.67 1016.29 1016.06 1015.95 1015.93 1015.93 1015.90 1015.81 1015.63 1015.39 1015.11 1014.86 1014.66 1014.55 1014.55 1014.65 1014.81 1015.01 1015.21 1015.38 1015.53 1015.66 1015.78 1015.92 1016.08 1016.28 1016.49 1016.69 1016.84 1016.92 1016.88 1016.73 1016.47 1016.12 1015.73
1020.01 1020.02 1019.93 1019.71 1019.31 1018.78 1018.17 1017.55 1017.00 1016.58 1016.29 1016.13 1016.06 1016.02 1015.95 1015.82 1015.61 1015.32 1015.01 1014.70 1014.45 1014.28 1014.21 1014.24 1014.34 1014.48 1014.62 1014.75 1014.86 1014.97 1015.08 1015.22 1015.39 1015.61 1015.86 1016.10 1016.30 1016.42 1016.43 1016.32 1016.09 1015.76 1015.37
1020.13 1020.21 1020.19 1020.02 1019.66 1019.15 1018.54 1017.90 1017.32 1016.85 1016.51 1016.30 1016.17 1016.07 1015.96 1015.79 1015.54 1015.22 1014.87 1014.52 1014.23 1014.01 1013.89 1013.85 1013.88 1013.95 1014.03 1014.10 1014.16 1014.21 1014.29 1014.40 1014.56 1014.77 1015.02 1015.27 1015.50 1015.66 1015.71 1015.65 1015.48 1015.21 1014.87
1020.28 1020.41 1020.44 1020.30 1019.97 1019.47 1018.86 1018.21 1017.60 1017.09 1016.70 1016.42 1016.23 1016.07 1015.91 1015.68 1015.40 1015.05 1014.68 1014.31 1013.98 1013.73 1013.56 1013.48 1013.45 1013.45 1013.46 1013.46 1013.45 1013.45 1013.46 1013.52 1013.63 1013.80 1014.02 1014.26 1014.49 1014.67 1014.76 1014.76 1014.66 1014.47 1014.21
1020.47 1020.62 1020.67 1020.54 1020.23 1019.74 1019.12 1018.47 1017.83 1017.29 1016.84 1016.51 1016.25 1016.03 1015.80 1015.53 1015.20 1014.83 1014.44 1014.06 1013.72 1013.45 1013.25 1013.13 1013.06 1013.00 1012.95 1012.89 1012.82 1012.74 1012.69 1012.67 1012.72 1012.83 1012.99 1013.19 1013.38 1013.56 1013.67 1013.72 1013.68 1013.58 1013.42
1020.68 1020.83 1020.87 1020.73 1020.41 1019.92 1019.31 1018.66 1018.01 1017.44 1016.96 1016.58 1016.26 1015.97 1015.68 1015.36 1014.99 1014.60 1014.19 1013.81 1013.47 1013.20 1013.00 1012.86 1012.76 1012.67 1012.57 1012.46 1012.32 1012.18 1012.05 1011.97 1011.93 1011.96 1012.05 1012.17 1012.32 1012.46 1012.57 1012.63 1012.64 1012.60 1012.53
1020.90 1021.02 1021.02 1020.86 1020.52 1020.03 1019.43 1018.78 1018.15 1017.57 1017.08 1016.65 1016.28 1015.94 1015.59 1015.22 1014.83 1014.42 1014.01 1013.63 1013.31 1013.05 1012.86 1012.71 1012.60 1012.49 1012.36 1012.20 1012.02 1011.83 1011.63 1011.48 1011.36 1011.31 1011.31 1011.35 1011.42 1011.50 1011.56 1011.60 1011.61 1011.61 1011.59
1021.08 1021.15 1021.10 1020.90 1020.54 1020.05 1019.47 1018.86 1018.25 1017.70 1017.20 1016.76 1016.36 1015.98 1015.59 1015.19 1014.77 1014.35 1013.95 1013.59 1013.29 1013.05 1012.87 1012.74 1012.62 1012.50 1012.35 1012.16 1011.94 1011.70 1011.46 1011.24 1011.05 1010.92 1010.83 1010.78 1010.75 1010.74 1010.73 1010.71 1010.68 1010.65 1010.63
1021.19 1021.20 1021.09 1020.85 1020.48 1020.00 1019.46 1018.89 1018.34 1017.83 1017.36 1016.92 1016.52 1016.11 1015.70 1015.28 1014.85 1014.44 1014.06 1013.72 1013.45 1013.24 1013.08 1012.96 1012.84 1012.70 1012.53 1012.32 1012.07 1011.80 1011.51 1011.24 1010.99 1010.79 1010.61 1010.47 1010.35 1010.23 1010.11 1009.99 1009.88 1009.78 1009.71
1021.21 1021.15 1020.99 1020.71 1020.34 1019.89 1019.40 1018.90 1018.42 1017.97 1017.55 1017.15 1016.76 1016.36 1015.95 1015.53 1015.11 1014.71 1014.35 1014.05 1013.81 1013.62 1013.48 1013.36 1013.24 1013.08 1012.89 1012.65 1012.36 1012.05 1011.73 1011.41 1011.12 1010.85 1010.61 1010.38 1010.16 1009.93 1009.70 1009.46 1009.24 1009.03 1008.86
1021.12 1021.02 1020.81 1020.51 1020.15 1019.74 1019.32 1018.91 1018.51 1018.14 1017.79 1017.43 1017.07 1016.70 1016.31 1015.90 1015.51 1015.14 1014.82 1014.55 1014.34 1014.18 1014.05 1013.92 1013.77 1013.59 1013.36 1013.07 1012.75 1012.39 1012.03 1011.68 1011.35 1011.03 1010.73 1010.43 1010.12 1009.80 1009.45 1009.09 1008.74 1008.41 1008.12
1020.94 1020.80 1020.57 1020.28 1019.94 1019.59 1019.25 1018.92 1018.62 1018.34 1018.05 1017.76 1017.45 1017.11 1016.75 1016.38 1016.02 1015.70 1015.42 1015.19 1015.01 1014.86 1014.73 1014.59 1014.41 1014.17 1013.89 1013.55 1013.16 1012.76 1012.36 1011.97 1011.60 1011.24 1010.90 1010.55 1010.18 1009.77 1009.33 1008.87 1008.40 1007.95 1007.53
1020.70 1020.54 1020.31 1020.04 1019.75 1019.47 1019.21 1018.97 1018.76 1018.55 1018.34 1018.10 1017.84 1017.54 1017.23 1016.91 1016.60 1016.32 1016.09 1015.90 1015.75 1015.62 1015.48 1015.30 1015.08 1014.79 1014.43 1014.03 1013.58 1013.12 1012.67 1012.24 1011.83 1011.45 1011.07 1010.69 1010.28 1009.83 1009.33 1008.79 1008.23 1007.67 1007.15
1020.41 1020.26 1020.06 1019.83 1019.60 1019.39 1019.21 1019.05 1018.92 1018.78 1018.63 1018.44 1018.22 1017.97 1017.70 1017.43 1017.18 1016.96 1016.77 1016.63 1016.50 1016.38 1016.23 1016.03 1015.75 1015.40 1014.98 1014.50 1013.99 1013.47 1012.96 1012.49 1012.05 1011.65 1011.25 1010.85 1010.42 1009.95 1009.42 1008.84 1008.23 1007.60 1006.99
1020.12 1020.00 1019.84 1019.66 1019.50 1019.35 1019.24 1019.16 1019.08 1019.00 1018.89 1018.75 1018.58 1018.37 1018.14 1017.92 1017.72 1017.55 1017.42 1017.31 1017.22 1017.10 1016.95 1016.72 1016.41 1016.01 1015.53 1014.99 1014.42 1013.85 1013.29 1012.78 1012.31 1011.89 1011.48 1011.07 1010.65 1010.17 1009.64 1009.05 1008.42 1007.76 1007.10
1019.83 1019.76 1019.65 1019.53 1019.43 1019.35 1019.30 1019.27 1019.24 1019.20 1019.12 1019.01 1018.87 1018.70 1018.52 1018.35 1018.20 1018.08 1017.99 1017.92 1017.85 1017.76 1017.60 1017.36 1017.03 1016.60 1016.09 1015.51 1014.90 1014.29 1013.70 1013.16 1012.67 1012.22 1011.81 1011.40 1010.98 1010.52 1010.00 1009.43 1008.81 1008.14 1007.45
1019.55 1019.53 1019.48 1019.43 1019.38 1019.36 1019.35 1019.36 1019.36 1019.34 1019.30 1019.21 1019.10 1018.96 1018.82 1018.69 1018.59 1018.52 1018.47 1018.43 1018.39 1018.31 1018.16 1017.93 1017.59 1017.16 1016.64 1016.06 1015.44 1014.82 1014.22 1013.67 1013.16 1012.71 1012.28 1011.87 1011.45 1011.01 1010.52 1009.97 1009.37 1008.72 1008.03
1019.28 1019.31 1019.31 1019.31 1019.31 1019.33 1019.36 1019.39 1019.42 1019.42 1019.39 1019.33 1019.25 1019.15 1019.05 1018.96 1018.89 1018.85 1018.83 1018.82 1018.79 1018.73 1018.60 1018.38 1018.07 1017.66 1017.17 1016.62 1016.03 1015.43 1014.85 1014.30 1013.80 1013.33 1012.90 1012.49 1012.07 1011.64 1011.16 1010.65 1010.08 1009.45 1008.77
1018.99 1019.07 1019.12 1019.16 1019.20 1019.25 1019.30 1019.35 1019.39 1019.41 1019.40 1019.37 1019.32 1019.25 1019.18 1019.13 1019.09 1019.07 1019.07 1019.07 1019.05 1018.99 1018.88 1018.69 1018.41 1018.06 1017.63 1017.14 1016.61 1016.07 1015.53 1015.02 1014.53 1014.07 1013.63 1013.21 1012.79 1012.35 1011.89 1011.40 1010.85 1010.25 1009.60
1018.68 1018.79 1018.88 1018.95 1019.01 1019.08 1019.14 1019.21 1019.26 1019.30 1019.32 1019.31 1019.30 1019.27 1019.23 1019.21 1019.19 1019.18 1019.18 1019.17 1019.14 1019.09 1018.98 1018.81 1018.58 1018.29 1017.93 1017.53 1017.10 1016.64 1016.18 1015.72 1015.27 1014.83 1014.40 1013.97 1013.54 1013.10 1012.64 1012.16 1011.64 1011.06 1010.43
1018.33 1018.46 1018.56 1018.65 1018.73 1018.80 1018.88 1018.95 1019.02 1019.08 1019.12 1019.15 1019.17 1019.18 1019.19 1019.18 1019.18 1019.16 1019.14 1019.11 1019.06 1018.98 1018.87 1018.72 1018.53 1018.30 1018.04 1017.74 1017.41 1017.06 1016.70 1016.32 1015.93 1015.52 1015.11 1014.68 1014.24 1013.80 1013.34 1012.86 1012.36 1011.81 1011.22
Thickness
5790 5789 5788 5786 5783 5779 5776 5774 5770 5768 5766 5763 5760 5758 5757 5757 5757 5758 5757 5757 5756 5755 5754 5753 5751 5751 5750 5749 5749 5747 5746 5746 5746 5744 5743 5745 5747 5747 5747 5747 5746 5746 5746
5786 5787 5786 5784 5781 5778 5776 5773 5770 5768 5767 5764 5761 5759 5758 5757 5757 5757 5757 5757 5756 5755 5754 5752 5751 5750 5748 5747 5747 5745 5743 5743 5744 5741 5737 5735 5739 5743 5746 5745 5744 5744 5744
5786 5786 5785 5783 5781 5778 5776 5774 5772 5769 5767 5765 5762 5760 5757 5756 5755 5755 5755 5755 5755 5754 5753 5752 5751 5749 5748 5746 5745 5744 5742 5739 5740 5740 5736 5731 5730 5734 5739 5741 5741 5741 5741
5789 5787 5785 5782 5781 5779 5778 5775 5772 5770 5767 5764 5761 5758 5755 5752 5753 5753 5753 5754 5754 5754 5753 5752 5751 5749 5748 5746 5745 5744 5742 5739 5736 5737 5737 5735 5734 5730 5730 5735 5737 5737 5737
5790 5787 5785 5784 5782 5780 5778 5774 5772 5769 5766 5764 5762 5759 5756 5754 5753 5753 5753 5752 5752 5752 5752 5752 5751 5749 5748 5746 5745 5743 5742 5740 5737 5735 5734 5732 5732 5731 5727 5726 5730 5732 5734
5790 5788 5786 5784 5781 5779 5776 5773 5769 5766 5765 5763 5761 5759 5756 5753 5751 5751 5750 5750 5750 5751 5751 5751 5750 5749 5747 5746 5744 5743 5741 5740 5738 5736 5734 5732 5730 5728 5726 5724 5725 5726 5729
5789 5787 5784 5781 5779 5777 5775 5772 5768 5764 5763 5761 5760 5759 5756 5754 5751 5750 5749 5749 5748 5748 5749 5749 5748 5747 5746 5745 5744 5742 5741 5739 5737 5736 5735 5734 5733 5731 5728 5724 5722 5721 5724
5789 5787 5785 5783 5780 5777 5774 5771 5768 5764 5762 5759 5758 5757 5756 5753 5752 5750 5749 5748 5748 5748 5748 5747 5747 5746 5745 5744 5743 5742 5740 5739 5737 5736 5734 5733 5732 5731 5729 5725 5721 5718 5718
5787 5786 5784 5782 5780 5776 5773 5770 5767 5764 5761 5759 5757 5755 5754 5752 5751 5750 5748 5747 5746 5746 5746 5745 5745 5744 5743 5742 5741 5739 5738 5737 5736 5735 5733 5732 5731 5730 5728 5725 5722 5717 5713
5784 5783 5782 5780 5778 5776 5773 5769 5766 5762 5760 5757 5755 5754 5751 5750 5749 5747 5746 5745 5744 5743 5743 5742 5742 5741 5740 5739 5738 5737 5736 5735 5734 5733 5731 5730 5729 5727 5726 5723 5721 5719 5715
5780 5779 5778 5777 5775 5773 5769 5766 5763 5759 5757 5754 5752 5750 5749 5748 5746 5744 5743 5742 5741 5740 5739 5739 5738 5737 5736 5735 5734 5734 5733 5731 5731 5730 5728 5727 5727 5725 5723 5720 5719 5716 5714
5777 5776 5774 5772 5770 5767 5765 5763 5760 5757 5755 5752 5750 5748 5746 5743 5742 5740 5739 5738 5737 5737 5736 5735 5734 5734 5733 5732 5730 5730 5729 5728 5727 5726 5725 5724 5723 5721 5719 5717 5715 5713 5712
5771 5770 5768 5767 5765 5763 5760 5759 5758 5756 5753 5750 5747 5744 5742 5740 5738 5737 5736 5735 5734 5733 5732 5731 5731 5730 5730 5728 5728 5726 5725 5724 5724 5723 5722 5721 5719 5717 5716 5714 5712 5711 5709
5765 5763 5762 5761 5760 5758 5756 5755 5754 5753 5750 5747 5744 5742 5740 5738 5736 5735 5733 5732 5730 5729 5728 5727 5727 5727 5726 5725 5724 5723 5722 5721 5721 5720 5719 5718 5716 5714 5712 5710 5708 5707 5704
5760 5759 5757 5756 5754 5753 5752 5751 5750 5748 5745 5742 5739 5738 5737 5735 5733 5731 5730 5728 5727 5726 5724 5723 5723 5722 5722 5721 5720 5719 5718 5717 5716 5715 5715 5714 5713 5712 5710 5708 5705 5703 5700
5755 5755 5754 5752 5751 5749 5747 5746 5745 5743 5741 5737 5735 5733 5732 5730 5728 5726 5725 5724 5722 5721 5720 5719 5718 5717 5717 5716 5715 5714 5713 5712 5711 5710 5710 5710 5709 5708 5706 5705 5703 5700 5697
5750 5750 5749 5748 5747 5745 5743 5740 5740 5738 5736 5734 5731 5728 5726 5725 5723 5722 5720 5718 5717 5716 5714 5714 5713 5711 5710 5711 5710 5709 5708 5707 5706 5705 5704 5704 5704 5702 5700 5699 5697 5695 5694
5745 5744 5743 5742 5741 5738 5737 5736 5733 5731 5730 5728 5726 5724 5722 5719 5718 5715 5714 5712 5711 5709 5708 5707 5707 5705 5705 5705 5705 5704 5702 5701 5701 5700 5699 5697 5696 5696 5694 5692 5691 5689 5688
5739 5739 5738 5736 5733 5731 5730 5729 5726 5725 5722 5721 5719 5718 5716 5714 5712 5709 5707 5706 5704 5703 5702 5701 5700 5699 5699 5699 5699 5697 5695 5694 5694 5693 5692 5691 5690 5689 5687 5686 5684 5682 5681
5732 5731 5730 5727 5725 5724 5723 5721 5719 5718 5716 5715 5713 5712 5711 5708 5705 5704 5702 5700 5698 5697 5696 5694 5694 5693 5693 5693 5692 5691 5689 5687 5686 5685 5685 5684 5683 5682 5681 5679 5677 5674 5673
5725 5723 5721 5719 5718 5717 5716 5713 5712 5711 5710 5709 5706 5704 5703 5701 5699 5698 5696 5694 5692 5689 5688 5687 5686 5686 5686 5686 5685 5684 5683 5681 5679 5678 5677 5677 5676 5674 5673 5671 5670 5668 5666
5716 5714 5712 5711 5710 5709 5708 5706 5704 5704 5703 5701 5699 5697 5695 5694 5693 5691 5689 5687 5683 5681 5679 5679 5678 5678 5678 5679 5678 5677 5675 5674 5672 5671 5670 5669 5668 5666 5664 5663 5661 5660 5658
5707 5706 5704 5703 5702 5701 5700 5698 5697 5696 5695 5694 5692 5690 5689 5687 5686 5684 5681 5678 5676 5674 5672 5671 5670 5671 5671 5671 5670 5668 5667 5666 5665 5664 5663 5661 5659 5658 5655 5653 5652 5650 5648
5698 5697 5695 5694 5693 5692 5691 5690 5689 5689 5687 5686 5684 5683 5680 5679 5677 5676 5674 5671 5669 5667 5665 5664 5664 5664 5664 5663 5662 5661 5659 5658 5657 5656 5654 5652 5650 5648 5646 5644 5642 5641 5639
5689 5687 5685 5684 5683 5683 5682 5682 5681 5680 5679 5678 5677 5675 5673 5672 5669 5667 5665 5664 5663 5661 5659 5659 5658 5657 5657 5657 5655 5653 5651 5650 5649 5647 5645 5644 5642 5639 5637 5635 5633 5631 5629
5680 5678 5677 5676 5674 5674 5673 5674 5673 5672 5671 5670 5668 5667 5665 5664 5662 5660 5657 5655 5655 5654 5653 5652 5651 5651 5650 5648 5647 5645 5643 5641 5640 5638 5636 5634 5632 5630 5628 5626 5623 5622 5620